Weather History for KS25 - April, 2014

Change the Weather History Date:

Monday, April 21, 2014

  Actual Average (KISN) Record (KISN)
Temperature  
Mean Temperature 47 °F 46 °F  
Max Temperature 62 °F 60 °F 92 °F (1980)
Min Temperature 32 °F 32 °F 17 °F (1909)
Degree Days  
Heating Degree Days 18 19  
Month to date heating degree days 493  
Since 1 July heating degree days 8368  
Cooling Degree Days 0 0  
Month to date cooling degree days 0  
Year to date cooling degree days 0  
Moisture  
Dew Point 32 °F    
Average Humidity 61    
Maximum Humidity 93    
Minimum Humidity 27    
Precipitation  
Precipitation 0.00 in 0.04 in 0.25 in (1967)
Month to date precipitation 0.63  
Year to date precipitation 2.32  
Sea Level Pressure  
Sea Level Pressure 30.13 in    
Wind  
Wind Speed 7 mph (NW)    
Max Wind Speed 12 mph    
Max Gust Speed 17 mph    
Visibility 10 miles    
Events      
T = Trace of Precipitation, MM = Missing Value Source: NWS Daily Summary

Daily Weather History Graph

Daily Weather History Graph

Search for Another Location

Airport or City:

Trip Planner

Search our weather history database for the weather conditions in past years. The results will help you decide how hot, cold, wet, or windy it might be!

Date:

Astronomy

Apr. 21, 2014 Rise Set
Actual Time 6:52 AM CDT 8:51 PM CDT
Civil Twilight 6:19 AM CDT 9:24 PM CDT
Nautical Twilight 5:38 AM CDT 10:06 PM CDT
Astronomical Twilight 4:53 AM CDT 10:51 PM CDT
Moon 2:29 AM CDT (4/21) 12:16 PM CDT (4/21)
Length of Visible Light 15h 05m
Length of Day
13h 59m
Waning Gibbous, 57% of the Moon is Illuminated
Apr 21
Waning Gibbous
Apr 22
Last Quarter
Apr 29
New
May 6
First Quarter
May 14
Full

Hourly Weather History & Observations

Time (CDT) Temp. Windchill Dew Point Humidity Pressure Visibility Wind Dir Wind Speed Gust Speed Precip Events Conditions
12:15 AM 37.4 °F 32.1 °F 26.6 °F 65% 30.05 in 10.0 mi WSW 6.9 mph - N/A   Clear
12:35 AM 39.2 °F 33.0 °F 26.6 °F 61% 30.06 in 10.0 mi West 9.2 mph - N/A   Clear
12:55 AM 41.0 °F 36.4 °F 28.4 °F 61% 30.06 in 10.0 mi West 6.9 mph - N/A   Clear
1:15 AM 42.8 °F 37.5 °F 28.4 °F 57% 30.07 in 10.0 mi WNW 9.2 mph - N/A   Clear
1:35 AM 44.6 °F 40.2 °F 32.0 °F 61% 30.07 in 10.0 mi NW 8.1 mph - N/A   Clear
1:55 AM 42.8 °F 40.1 °F 32.0 °F 66% 30.08 in 10.0 mi WNW 4.6 mph - N/A   Clear
2:15 AM 41.0 °F 36.4 °F 32.0 °F 70% 30.08 in 10.0 mi WNW 6.9 mph - N/A   Clear
2:35 AM 41.0 °F 37.1 °F 32.0 °F 70% 30.09 in 10.0 mi West 5.8 mph - N/A   Clear
2:55 AM 39.2 °F 34.2 °F 32.0 °F 75% 30.08 in 10.0 mi NW 6.9 mph - N/A   Clear
3:15 AM 37.4 °F 32.8 °F 32.0 °F 81% 30.08 in 10.0 mi NNW 5.8 mph - N/A   Clear
3:35 AM 37.4 °F - 32.0 °F 81% 30.09 in 10.0 mi Calm Calm - N/A   Clear
3:55 AM 35.6 °F 28.6 °F 32.0 °F 87% 30.09 in 10.0 mi WSW 9.2 mph - N/A   Clear
4:15 AM 35.6 °F 29.2 °F 32.0 °F 87% 30.10 in 10.0 mi WSW 8.1 mph - N/A   Clear
4:35 AM 35.6 °F 29.9 °F 32.0 °F 87% 30.11 in 10.0 mi West 6.9 mph - N/A   Clear
4:55 AM 35.6 °F 30.7 °F 32.0 °F 87% 30.12 in 10.0 mi WNW 5.8 mph - N/A   Clear
5:15 AM 35.6 °F 29.9 °F 32.0 °F 87% 30.13 in 10.0 mi West 6.9 mph - N/A   Clear
5:35 AM 33.8 °F 27.7 °F 32.0 °F 93% 30.14 in 10.0 mi West 6.9 mph - N/A   Clear
5:55 AM 35.6 °F 30.7 °F 32.0 °F 87% 30.16 in 10.0 mi SSW 5.8 mph - N/A   Clear
6:15 AM 32.0 °F 27.5 °F 30.2 °F 93% 30.16 in 10.0 mi SSW 4.6 mph - N/A   Mostly Cloudy
6:35 AM 33.8 °F 29.6 °F 32.0 °F 93% 30.16 in 10.0 mi WNW 4.6 mph - N/A   Overcast
6:55 AM 37.4 °F 31.4 °F 33.8 °F 87% 30.18 in 10.0 mi NW 8.1 mph - N/A   Overcast
7:15 AM 37.4 °F 32.8 °F 33.8 °F 87% 30.18 in 10.0 mi NNW 5.8 mph - N/A   Overcast
7:35 AM 37.4 °F 30.3 °F 35.6 °F 93% 30.18 in 10.0 mi NNW 10.4 mph - N/A   Overcast
7:55 AM 37.4 °F 32.8 °F 35.6 °F 93% 30.19 in 10.0 mi NNW 5.8 mph - N/A   Overcast
8:15 AM 37.4 °F 32.1 °F 35.6 °F 93% 30.19 in 10.0 mi NNW 6.9 mph - N/A   Overcast
8:35 AM 37.4 °F 32.1 °F 35.6 °F 93% 30.20 in 10.0 mi NW 6.9 mph - N/A   Overcast
8:55 AM 39.2 °F 35.0 °F 35.6 °F 87% 30.21 in 10.0 mi WNW 5.8 mph - N/A   Overcast
9:15 AM 39.2 °F 34.2 °F 35.6 °F 87% 30.21 in 10.0 mi NW 6.9 mph - N/A   Overcast
9:35 AM 39.2 °F 34.2 °F 35.6 °F 87% 30.21 in 10.0 mi West 6.9 mph - N/A   Overcast
9:55 AM 39.2 °F 34.2 °F 35.6 °F 87% 30.21 in 10.0 mi WNW 6.9 mph - N/A   Overcast
10:15 AM 39.2 °F 33.0 °F 35.6 °F 87% 30.22 in 10.0 mi West 9.2 mph - N/A   Overcast
10:35 AM 41.0 °F 36.4 °F 35.6 °F 81% 30.22 in 10.0 mi West 6.9 mph - N/A   Overcast
10:55 AM 41.0 °F 39.0 °F 35.6 °F 81% 30.22 in 10.0 mi WNW 3.5 mph - N/A   Overcast
11:15 AM 42.8 °F 39.3 °F 35.6 °F 76% 30.22 in 10.0 mi WNW 5.8 mph - N/A   Mostly Cloudy
11:35 AM 44.6 °F - 35.6 °F 71% 30.21 in 10.0 mi Calm Calm - N/A   Partly Cloudy
11:55 AM 46.4 °F - 35.6 °F 66% 30.21 in 10.0 mi Calm Calm - N/A   Clear
12:15 PM 48.2 °F - 35.6 °F 62% 30.20 in 10.0 mi NW 3.5 mph - N/A   Clear
12:35 PM 48.2 °F - 33.8 °F 58% 30.19 in 10.0 mi WSW 4.6 mph - N/A   Clear
12:55 PM 50.0 °F - 33.8 °F 54% 30.19 in 10.0 mi North 4.6 mph - N/A   Clear
1:15 PM 51.8 °F - 33.8 °F 50% 30.18 in 10.0 mi NW 5.8 mph - N/A   Clear
1:35 PM 55.4 °F - 33.8 °F 44% 30.17 in 10.0 mi WNW 6.9 mph - N/A   Clear
1:55 PM 55.4 °F - 32.0 °F 41% 30.17 in 10.0 mi WSW 3.5 mph - N/A   Clear
2:15 PM 57.2 °F - 32.0 °F 38% 30.16 in 10.0 mi West 6.9 mph - N/A   Clear
2:35 PM 57.2 °F - 32.0 °F 38% 30.15 in 10.0 mi West 3.5 mph - N/A   Clear
2:55 PM 59.0 °F - 32.0 °F 36% 30.14 in 10.0 mi North 9.2 mph - N/A   Clear
3:15 PM 59.0 °F - 30.2 °F 34% 30.14 in 10.0 mi NW 10.4 mph 16.1 mph N/A   Clear
3:35 PM 59.0 °F - 30.2 °F 34% 30.14 in 10.0 mi North 9.2 mph 16.1 mph N/A   Clear
3:55 PM 60.8 °F - 32.0 °F 34% 30.13 in 10.0 mi NNW 11.5 mph 16.1 mph N/A   Clear
4:15 PM 60.8 °F - 30.2 °F 31% 30.13 in 10.0 mi NNW 4.6 mph - N/A   Clear
4:35 PM 62.6 °F - 32.0 °F 32% 30.12 in 10.0 mi NW 10.4 mph - N/A   Clear
4:55 PM 62.6 °F - 30.2 °F 30% 30.11 in 10.0 mi NNW 8.1 mph - N/A   Clear
5:15 PM 62.6 °F - 28.4 °F 27% 30.11 in 10.0 mi WNW 3.5 mph - N/A   Clear
5:35 PM 62.6 °F - 28.4 °F 27% 30.10 in 10.0 mi NW 9.2 mph 17.3 mph N/A   Clear
5:55 PM 62.6 °F - 30.2 °F 30% 30.10 in 10.0 mi North 6.9 mph - N/A   Clear
6:15 PM 60.8 °F - 28.4 °F 29% 30.10 in 10.0 mi NNW 3.5 mph - N/A   Clear
6:35 PM 62.6 °F - 28.4 °F 27% 30.09 in 10.0 mi North 3.5 mph - N/A   Clear
6:55 PM 62.6 °F - 28.4 °F 27% 30.09 in 10.0 mi ENE 3.5 mph - N/A   Clear
7:15 PM 62.6 °F - 28.4 °F 27% 30.08 in 10.0 mi NNE 5.8 mph - N/A   Clear
7:35 PM 60.8 °F - 28.4 °F 29% 30.08 in 10.0 mi NE 6.9 mph - N/A   Clear
7:55 PM 59.0 °F - 28.4 °F 31% 30.08 in 10.0 mi NE 3.5 mph - N/A   Clear
8:15 PM 57.2 °F - 28.4 °F 33% 30.08 in 10.0 mi NE 4.6 mph - N/A   Clear
8:35 PM 53.6 °F - 28.4 °F 38% 30.08 in 10.0 mi NE 6.9 mph - N/A   Clear
8:55 PM 50.0 °F - 28.4 °F 43% 30.07 in 10.0 mi East 6.9 mph - N/A   Clear
9:15 PM 48.2 °F - 28.4 °F 46% 30.07 in 10.0 mi East 8.1 mph - N/A   Clear
9:35 PM 48.2 °F - 28.4 °F 46% 30.07 in 10.0 mi East 9.2 mph - N/A   Clear
9:55 PM 44.6 °F 39.7 °F 28.4 °F 53% 30.07 in 10.0 mi ESE 9.2 mph - N/A   Clear
10:15 PM 44.6 °F 39.2 °F 28.4 °F 53% 30.08 in 10.0 mi ESE 10.4 mph - N/A   Clear
10:35 PM 44.6 °F 39.2 °F 28.4 °F 53% 30.08 in 10.0 mi ESE 10.4 mph - N/A   Clear
10:55 PM 44.6 °F 39.2 °F 28.4 °F 53% 30.07 in 10.0 mi ESE 10.4 mph - N/A   Clear
11:15 PM 42.8 °F 37.0 °F 30.2 °F 61% 30.07 in 10.0 mi ESE 10.4 mph - N/A   Clear
11:35 PM 44.6 °F 38.8 °F 30.2 °F 57% 30.07 in 10.0 mi ESE 11.5 mph - N/A   Clear
11:55 PM 44.6 °F 39.2 °F 30.2 °F 57% 30.06 in 10.0 mi ESE 10.4 mph - N/A   Clear